User: anonymous   Login
Location: Newark
(41.7300°N, 13.7500°E)
Time: 05:17:27
(UTC+00:00)
Language:

POLYITAN 1 - Orbit

View from above orbital plane
View from above orbital plane
View from above satellite
View from above satellite

Ground track
Ground track

The orbit data is extracted from the following two-line orbital elements,

1 40042U 14033AJ  20330.53715367 +.00000796 +00000-0 +90441-4 0  9990
2 40042 097.9298 255.4936 0015728 117.2371 243.0450 14.89008431348961
Epoch (UTC): 25 November 2020 12:53:30
Eccentricity: 0.0015728
inclination: 97.9298°
perigee height: 590 km
apogee height: 612 km
right ascension of ascending node: 255.4936°
argument of perigee: 117.2371°
revolutions per day: 14.89008431
mean anomaly at epoch: 243.0450°
orbit number at epoch: 34896

The dashed part of the orbit path shows where the satellite is in the earth's shadow,  

DLR